Tracking 29093 objects as of 14-Jul-2024
HD Live streaming from Space Station
objects crossing your sky now

ATLAS 5 CENTAUR DEB

Track ATLAS 5 CENTAUR DEB now!


NORAD ID: 44685
Int'l Code: 2018-079AX
Perigee: 9,525.4 km
Apogee: 37,218.9 km
Inclination: 10.8 °
Period: 850.8 minutes
Semi major axis: 29743 km
RCS: Unknown
Launch date: October 17, 2018
Source: United States (US)
Launch site: AIR FORCE EASTERN TEST RANGE (AFETR)

Note: This is SATELLITE DEBRIS
Your satellite tracking list
Your tracking list is empty




NASA's NSSDC Master Catalog

Two Line Element Set (TLE):
1 44685U 18079AX  24194.11631762 -.00000081  00000-0  00000-0 0  9999
2 44685  10.7607 128.6350 4655437 132.7732 277.0216  1.69247747 31561
Source of the keplerian elements: AFSPC